Location: Newark
(25.4800°N, 85.7200°E)
Time: 05:11:32
(UTC+00:00)

Transit 4A - Pass Details

Date: 01 September 2019
Orbit: 865 x 980 km, 66.8° (Epoch: 19 September)

Event Time Altitude Azimuth Distance (km) Brightness Sun altitude
Rises 18:02:42 0° 3° (N) 3,581 11.5 -56.2°
Enters shadow 18:03:28 - 7° (N) 3,385 11.3 -56.2°
Reaches altitude 10° 18:07:43 10° 38° (NE) 2,601 - -56.3°
Maximum altitude 18:09:14 11° 53° (NE) 2,522 - -56.3°
Drops below altitude 10° 18:10:45 10° 68° (ENE) 2,578 - -56.3°
Sets 18:15:36 0° 103° (ESE) 3,485 - -56.3°
